GW6138 Weather Reports


time (UTC)temp
F
wind
direction
speed
knots
gust
knots
rain 1hr
in
rain 24hr
in
rain mn
in
humidity
%
barometer
mb
20260906204507 90 0.0 0.0 0.00 0.00 0.00 40 1016.7
20260906204010 91 0.0 0.0 0.00 0.00 0.00 39 1016.7
20260906203512 91 0.0 0.0 0.00 0.00 0.00 40 1016.7
20260906203005 91 0.0 0.0 0.00 0.00 0.00 39 1017.1
20260906202507 91 0.0 0.0 0.00 0.00 0.00 41 1016.7
20260906202009 90 0.0 0.0 0.00 0.00 0.00 41 1017.1
20260906201511 91 0.0 0.0 0.00 0.00 0.00 40 1016.7
20260906201004 90 0.0 0.0 0.00 0.00 0.00 41 1017.1
20260906200505 90 0.0 0.0 0.00 0.00 0.00 41 1017.1
20260906200008 90 0.0 0.0 0.00 0.00 0.00 40 1017.1
20260906195510 90 0.0 0.0 0.00 0.00 0.00 42 1017.1
20260906195012 90 0.0 0.0 0.00 0.00 0.00 42 1017.5
20260906194506 90 0.0 0.0 0.00 0.00 0.00 42 1017.5
20260906194007 90 0.0 0.0 0.00 0.00 0.00 42 1017.5
20260906193510 90 0.0 0.0 0.00 0.00 0.00 42 1017.5
20260906193012 89 0.0 0.0 0.00 0.00 0.00 43 1017.5
20260906192504 89 0.0 0.0 0.00 0.00 0.00 43 1017.5
20260906192006 89 0.0 0.0 0.00 0.00 0.00 43 1017.5
20260906191509 89 0.0 0.0 0.00 0.00 0.00 44 1017.9
20260906191011 88 0.0 0.0 0.00 0.00 0.00 44 1017.9
20260906190513 88 0.0 0.0 0.00 0.00 0.00 44 1017.5
20260906190006 88 0.0 0.0 0.00 0.00 0.00 44 1017.5
20260906185507 89 0.0 0.0 0.00 0.00 0.00 44 1018.3
20260906185010 88 0.0 0.0 0.00 0.00 0.00 44 1017.9
20260906184512 89 0.0 0.0 0.00 0.00 0.00 44 1018.3
20260906184005 88 0.0 0.0 0.00 0.00 0.00 45 1017.9
20260906183507 88 0.0 0.0 0.00 0.00 0.00 45 1018.3
20260906183010 87 0.0 0.0 0.00 0.00 0.00 46 1018.3
20260906182511 87 0.0 0.0 0.00 0.00 0.00 47 1018.7
20260906182004 87 0.0 0.0 0.00 0.00 0.00 46 1018.7
20260906181507 87 0.0 0.0 0.00 0.00 0.00 47 1018.7
20260906181008 87 0.0 0.0 0.00 0.00 0.00 47 1018.7
20260906180511 86 0.0 0.0 0.00 0.00 0.00 49 1019.0
20260906180013 86 0.0 0.0 0.00 0.00 0.00 50 1019.0
20260906175505 86 0.0 0.0 0.00 0.00 0.00 50 1019.0
20260906175007 85 0.0 0.0 0.00 0.00 0.00 49 1019.0
20260906174511 86 0.0 0.0 0.00 0.00 0.00 48 1019.0
20260906174012 85 0.0 0.0 0.00 0.00 0.00 49 1019.4
20260906173505 85 0.0 0.0 0.00 0.00 0.00 49 1019.4
20260906173006 85 0.0 0.0 0.00 0.00 0.00 50 1019.4
20260906172510 85 0.0 0.0 0.00 0.00 0.00 50 1019.4
20260906172011 85 0.0 0.0 0.00 0.00 0.00 51 1019.4
20260906171513 85 0.0 0.0 0.00 0.00 0.00 50 1019.4
20260906171006 84 0.0 0.0 0.00 0.00 0.00 51 1019.4
20260906170508 84 0.0 0.0 0.00 0.00 0.00 52 1019.4
20260906170010 83 0.0 0.0 0.00 0.00 0.00 53 1019.8
20260906165513 83 0.0 0.0 0.00 0.00 0.00 53 1019.4
20260906165005 84 0.0 0.0 0.00 0.00 0.00 52 1019.8
20260906164507 84 0.0 0.0 0.00 0.00 0.00 53 1019.4
20260906164010 83 0.0 0.0 0.00 0.00 0.00 53 1019.8
20260906163512 82 0.0 0.0 0.00 0.00 0.00 55 1019.8
20260906163005 82 0.0 0.0 0.00 0.00 0.00 56 1019.8
20260906162506 82 0.0 0.0 0.00 0.00 0.00 57 1019.8
20260906162008 81 0.0 0.0 0.00 0.00 0.00 58 1019.8
20260906161511 80 0.0 0.0 0.00 0.00 0.00 61 1019.8
20260906161013 79 0.0 0.0 0.00 0.00 0.00 64 1019.8
20260906160506 78 0.0 0.0 0.00 0.00 0.00 66 1019.8
20260906160007 77 0.0 0.0 0.00 0.00 0.00 68 1019.4
20260906155511 77 0.0 0.0 0.00 0.00 0.00 68 1019.8
20260906155012 78 0.0 0.0 0.00 0.00 0.00 66 1019.8
20260906154505 77 0.0 0.0 0.00 0.00 0.00 67 1019.4
20260906154007 78 0.0 0.0 0.00 0.00 0.00 66 1019.4
20260906153509 77 0.0 0.0 0.00 0.00 0.00 68 1019.8
20260906153012 77 0.0 0.0 0.00 0.00 0.00 69 1019.8
20260906152504 77 0.0 0.0 0.00 0.00 0.00 69 1019.8
20260906152006 77 0.0 0.0 0.00 0.00 0.00 69 1019.4
20260906151508 76 0.0 0.0 0.00 0.00 0.00 70 1019.4
20260906151011 75 0.0 0.0 0.00 0.00 0.00 71 1019.4
20260906150513 74 0.0 0.0 0.00 0.00 0.00 72 1019.8
20260906150006 74 0.0 0.0 0.00 0.00 0.00 72 1019.4
20260906145507 74 0.0 0.0 0.00 0.00 0.00 72 1019.4
20260906145010 74 0.0 0.0 0.00 0.00 0.00 73 1019.8
20260906144512 74 0.0 0.0 0.00 0.00 0.00 74 1019.8
20260906144004 73 0.0 0.0 0.00 0.00 0.00 75 1019.8
20260906143507 73 0.0 0.0 0.00 0.00 0.00 76 1019.8
20260906143008 72 0.0 0.0 0.00 0.00 0.00 77 1019.8
20260906142511 72 0.0 0.0 0.00 0.00 0.00 78 1019.8
20260906142013 72 0.0 0.0 0.00 0.00 0.00 79 1019.4
20260906141506 71 0.0 0.0 0.00 0.00 0.00 80 1019.8
20260906141008 71 0.0 0.0 0.00 0.00 0.00 81 1019.4
20260906140511 70 0.0 0.0 0.00 0.00 0.00 83 1019.4
20260906140013 70 0.0 0.0 0.00 0.00 0.00 84 1019.4
20260906135505 69 0.0 0.0 0.00 0.00 0.00 86 1019.4
20260906135007 69 0.0 0.0 0.00 0.00 0.00 87 1019.4
20260906134510 69 0.0 0.0 0.00 0.00 0.00 87 1019.4
20260906134013 68 0.0 0.0 0.00 0.00 0.00 89 1019.4
20260906133505 67 0.0 0.0 0.00 0.00 0.00 91 1019.4
20260906133007 67 0.0 0.0 0.00 0.00 0.00 91 1019.4
20260906132508 67 0.0 0.0 0.00 0.00 0.00 91 1019.4
20260906132011 66 0.0 0.0 0.00 0.00 0.00 93 1019.4
20260906131513 65 0.0 0.0 0.00 0.00 0.00 95 1019.4
20260906131006 65 0.0 0.0 0.00 0.00 0.00 95 1019.4
20260906130508 65 0.0 0.0 0.00 0.00 0.00 96 1019.4
20260906130011 64 0.0 0.0 0.00 0.00 0.00 96 1019.4
20260906125512 64 0.0 0.0 0.00 0.00 0.00 96 1019.4
20260906125005 64 0.0 0.0 0.00 0.00 0.00 96 1019.4
20260906124507 64 0.0 0.0 0.00 0.00 0.00 96 1019.4
20260906124010 64 0.0 0.0 0.00 0.00 0.00 95 1019.4
20260906123512 64 0.0 0.0 0.00 0.00 0.00 94 1019.4
20260906123004 64 0.0 0.0 0.00 0.00 0.00 94 1019.0
20260906122506 64 0.0 0.0 0.00 0.00 0.00 93 1019.0
20260906122008 65 0.0 0.0 0.00 0.00 0.00 93 1019.0
20260906121511 65 0.0 0.0 0.00 0.00 0.00 92 1019.0
20260906121013 65 0.0 0.0 0.00 0.00 0.00 91 1019.0
20260906120506 65 0.0 0.0 0.00 0.00 0.00 91 1019.0
20260906120008 66 0.0 0.0 0.00 0.00 0.00 91 1019.0
20260906115509 66 0.0 0.0 0.00 0.00 0.00 90 1019.0
20260906115012 66 0.0 0.0 0.00 0.00 0.00 89 1019.4
20260906114505 66 0.0 0.0 0.00 0.00 0.00 88 1019.4
20260906114007 67 0.0 0.0 0.00 0.00 0.00 87 1019.0
20260906113509 67 0.0 0.0 0.00 0.00 0.00 86 1019.0
20260906113012 67 0.0 0.0 0.00 0.00 0.00 85 1019.4
20260906112504 68 0.0 0.0 0.00 0.00 0.00 85 1019.0
20260906112006 68 0.0 0.0 0.00 0.00 0.00 85 1019.0
20260906111508 68 0.0 0.0 0.00 0.00 0.00 84 1019.0
20260906111011 68 0.0 0.0 0.00 0.00 0.00 82 1019.0
20260906110513 68 0.0 0.0 0.00 0.00 0.00 83 1019.0
20260906110005 68 0.0 0.0 0.00 0.00 0.00 84 1019.0
20260906105507 68 0.0 0.0 0.00 0.00 0.00 83 1019.0
20260906105009 67 0.0 0.0 0.00 0.00 0.00 84 1019.0
20260906104512 67 0.0 0.0 0.00 0.00 0.00 84 1019.0
20260906104004 68 0.0 0.0 0.00 0.00 0.00 83 1018.7
20260906103507 68 0.0 0.0 0.00 0.00 0.00 82 1018.7
20260906103008 68 0.0 0.0 0.00 0.00 0.00 82 1018.7
20260906102512 68 0.0 0.0 0.00 0.00 0.00 81 1019.0
20260906102013 69 0.0 0.0 0.00 0.00 0.00 79 1019.0
20260906101507 69 0.0 0.0 0.00 0.00 0.00 78 1018.7
20260906101008 70 0.0 0.0 0.00 0.00 0.00 77 1018.7
20260906100511 70 0.0 0.0 0.00 0.00 0.00 76 1018.7
20260906100013 70 0.0 0.0 0.00 0.00 0.00 77 1018.3
20260906095505 70 0.0 0.0 0.00 0.00 0.00 78 1018.3
20260906095007 70 0.0 0.0 0.00 0.00 0.00 77 1018.7
20260906094509 70 0.0 0.0 0.00 0.00 0.00 77 1018.7
20260906094012 70 0.0 0.0 0.00 0.00 0.00 77 1018.7
20260906093504 69 0.0 0.0 0.00 0.00 0.00 79 1018.7
20260906093007 69 0.0 0.0 0.00 0.00 0.00 80 1018.7
20260906092508 70 0.0 0.0 0.00 0.00 0.00 78 1018.3
20260906092011 70 0.0 0.0 0.00 0.00 0.00 74 1018.3
20260906091513 70 0.0 0.0 0.00 0.00 0.00 75 1017.9
20260906091006 70 0.0 0.0 0.00 0.00 0.00 76 1017.9
20260906090508 70 0.0 0.0 0.00 0.00 0.00 77 1017.9
20260906090009 70 0.0 0.0 0.00 0.00 0.00 79 1017.9
20260906085512 70 0.0 0.0 0.00 0.00 0.00 79 1018.3
20260906085004 69 0.0 0.0 0.00 0.00 0.00 80 1018.3
20260906084507 70 0.0 0.0 0.00 0.00 0.00 80 1018.3
20260906084009 70 0.0 0.0 0.00 0.00 0.00 80 1018.3
20260906083512 69 0.0 0.0 0.00 0.00 0.00 80 1017.9
20260906083003 69 0.0 0.0 0.00 0.00 0.00 80 1018.3
20260906082505 69 0.0 0.0 0.00 0.00 0.00 80 1018.3
20260906082008 70 0.0 0.0 0.00 0.00 0.00 79 1018.3
20260906081510 70 0.0 0.0 0.00 0.00 0.00 78 1018.3
20260906081013 70 0.0 0.0 0.00 0.00 0.00 77 1018.7
20260906080504 70 0.0 0.0 0.00 0.00 0.00 76 1018.7
20260906080007 70 0.0 0.0 0.00 0.00 0.00 76 1018.7
20260906075509 70 0.0 0.0 0.00 0.00 0.00 76 1018.7
20260906075012 70 0.0 0.0 0.00 0.00 0.00 76 1018.7
20260906074514 71 0.0 0.0 0.00 0.00 0.00 75 1018.3
20260906074007 71 0.0 0.0 0.00 0.00 0.00 74 1018.3
20260906073508 70 0.0 0.0 0.00 0.00 0.00 75 1018.3
20260906073010 70 0.0 0.0 0.00 0.00 0.00 76 1018.3
20260906072514 70 0.0 0.0 0.00 0.00 0.00 76 1018.3
20260906072005 70 0.0 0.0 0.00 0.00 0.00 76 1018.3
20260906071508 70 0.0 0.0 0.00 0.00 0.00 76 1018.3
20260906071010 70 0.0 0.0 0.00 0.00 0.00 75 1018.3
20260906070513 71 0.0 0.0 0.00 0.00 0.00 74 1018.3
20260906070004 71 0.0 0.0 0.00 0.00 0.00 74 1018.3
20260906065506 71 0.0 0.0 0.00 0.00 0.00 74 1017.9
20260906065009 70 0.0 0.0 0.00 0.00 0.00 75 1017.9
20260906064512 70 0.0 0.0 0.00 0.00 0.00 75 1017.9
20260906064004 70 0.0 0.0 0.00 0.00 0.00 75 1017.9
20260906063507 70 0.0 0.0 0.00 0.00 0.00 75 1017.9
20260906063008 70 0.0 0.0 0.00 0.00 0.00 75 1017.9
20260906062510 70 0.0 0.0 0.00 0.00 0.00 75 1017.9
20260906062013 70 0.0 0.0 0.00 0.00 0.00 75 1017.9
20260906061505 71 0.0 0.0 0.00 0.00 0.00 74 1017.9
20260906061008 72 0.0 0.0 0.00 0.00 0.00 72 1017.5
20260906060509 72 0.0 0.0 0.00 0.00 0.00 71 1017.5
20260906060013 72 0.0 0.0 0.00 0.00 0.00 70 1017.5
20260906055504 72 0.0 0.0 0.00 0.00 0.00 70 1017.5
20260906055007 73 0.0 0.0 0.00 0.00 0.00 70 1017.5
20260906054509 72 0.0 0.0 0.00 0.00 0.00 70 1017.5
20260906054012 73 0.0 0.0 0.00 0.00 0.00 69 1017.5
20260906053504 73 0.0 0.0 0.00 0.00 0.00 69 1017.5
20260906053006 73 0.0 0.0 0.00 0.00 0.00 69 1017.5
20260906052507 73 0.0 0.0 0.00 0.00 0.00 69 1017.5
20260906052010 73 0.0 0.0 0.00 0.00 0.00 69 1017.5
20260906051513 73 0.0 0.0 0.00 0.00 0.00 69 1017.5
20260906051005 74 0.0 0.0 0.00 0.00 0.00 67 1017.1
20260906050508 74 0.0 0.0 0.00 0.00 0.00 67 1017.1
20260906050009 74 0.0 0.0 0.00 0.00 0.00 66 1017.1
20260906045512 74 0.0 0.0 0.00 0.00 0.00 66 1017.1
20260906045004 74 0.0 0.0 0.00 0.00 0.00 66 1017.1
20260906044507 74 0.0 0.0 0.00 0.00 0.00 66 1017.1
20260906044009 74 0.0 0.0 0.00 0.00 0.00 66 1017.1
20260906043003 74 0.0 0.0 0.00 0.00 0.00 67 1017.5
20260906042506 74 0.0 0.0 0.00 0.00 0.00 66 1017.5
20260906042008 75 0.0 0.0 0.00 0.00 0.00 65 1017.5
20260906041510 75 0.0 0.0 0.00 0.00 0.00 64 1017.5
20260906041013 75 0.0 0.0 0.00 0.00 0.00 64 1017.5
20260906040504 76 0.0 0.0 0.00 0.00 0.00 63 1017.9
20260906040008 76 0.0 0.0 0.00 0.00 0.00 62 1017.9
20260906035509 76 0.0 0.0 0.00 0.00 0.00 61 1017.9
20260906035012 77 0.0 0.0 0.00 0.00 0.00 61 1017.9
20260906034504 77 0.0 0.0 0.00 0.00 0.00 60 1017.9
20260906034007 77 0.0 0.0 0.00 0.00 0.00 60 1017.5
20260906033508 77 0.0 0.0 0.00 0.00 0.00 60 1017.5
20260906033010 76 0.0 0.0 0.00 0.00 0.00 61 1017.9
20260906032503 76 0.0 0.0 0.00 0.00 0.00 62 1017.9
20260906032006 77 0.0 0.0 0.00 0.00 0.00 62 1017.9
20260906031507 77 0.0 0.0 0.00 0.00 0.00 61 1017.9
20260906031010 77 0.0 0.0 0.00 0.00 0.00 61 1017.9
20260906030513 77 0.0 0.0 0.00 0.00 0.00 61 1017.5
20260906030004 78 0.0 0.0 0.00 0.00 0.00 60 1017.5
20260906025507 78 0.0 0.0 0.00 0.00 0.00 59 1017.1
20260906025009 78 0.0 0.0 0.00 0.00 0.00 59 1017.1
20260906024512 78 0.0 0.0 0.00 0.00 0.00 59 1017.1
20260906024004 79 0.0 0.0 0.00 0.00 0.00 58 1017.1
20260906023507 79 0.0 0.0 0.00 0.00 0.00 58 1017.1
20260906023009 80 0.0 0.0 0.00 0.00 0.00 57 1017.1
20260906022510 80 0.0 0.0 0.00 0.00 0.00 56 1017.1
20260906022013 80 0.0 0.0 0.00 0.00 0.00 56 1017.1
20260906021506 80 0.0 0.0 0.00 0.00 0.00 56 1017.1
20260906021008 81 0.0 0.0 0.00 0.00 0.00 55 1017.1
20260906020509 81 0.0 0.0 0.00 0.00 0.00 54 1017.1
20260906020013 82 0.0 0.0 0.00 0.00 0.00 53 1017.1
20260906015504 82 0.0 0.0 0.00 0.00 0.00 52 1017.1
20260906015007 82 0.0 0.0 0.00 0.00 0.00 52 1017.1
20260906014509 83 0.0 0.0 0.00 0.00 0.00 51 1016.7
20260906014012 83 0.0 0.0 0.00 0.00 0.00 50 1016.7
20260906013504 83 0.0 0.0 0.00 0.00 0.00 50 1016.7
20260906013006 84 0.0 0.0 0.00 0.00 0.00 49 1016.3
20260906012508 84 0.0 0.0 0.00 0.00 0.00 48 1016.3
20260906012010 84 0.0 0.0 0.00 0.00 0.00 48 1016.3
20260906011513 85 0.0 0.0 0.00 0.00 0.00 47 1016.3
20260906011006 85 0.0 0.0 0.00 0.00 0.00 46 1016.3
20260906010508 85 0.0 0.0 0.00 0.00 0.00 46 1015.9
20260906010009 85 0.0 0.0 0.00 0.00 0.00 45 1015.9
20260906005512 86 0.0 0.0 0.00 0.00 0.00 45 1015.9
20260906005005 86 0.0 0.0 0.00 0.00 0.00 44 1015.9
20260906004507 87 0.0 0.0 0.00 0.00 0.00 44 1015.9
20260906004009 88 0.0 0.0 0.00 0.00 0.00 43 1015.9
20260906003512 88 0.0 0.0 0.00 0.00 0.00 42 1015.5
20260906003013 89 0.0 0.0 0.00 0.00 0.00 41 1015.5
20260906002507 89 0.0 0.0 0.00 0.00 0.00 41 1015.5
20260906002008 90 0.0 0.0 0.00 0.00 0.00 41 1015.1
20260906001511 90 0.0 0.0 0.00 0.00 0.00 41 1015.1
20260906001013 90 0.0 0.0 0.00 0.00 0.00 41 1015.1
20260906000506 91 0.0 0.0 0.00 0.00 0.00 39 1015.1
20260906000008 91 0.0 0.0 0.00 0.00 0.00 39 1015.5
20260905235510 91 0.0 0.0 0.00 0.00 0.00 38 1015.5
20260905235012 91 0.0 0.0 0.00 0.00 0.00 38 1015.5
20260905234504 92 0.0 0.0 0.00 0.00 0.00 37 1015.5
20260905234007 92 0.0 0.0 0.00 0.00 0.00 38 1015.5
20260905233509 92 0.0 0.0 0.00 0.00 0.00 38 1015.5
20260905233012 92 0.0 0.0 0.00 0.00 0.00 39 1015.5
20260905232503 92 0.0 0.0 0.00 0.00 0.00 38 1015.5
20260905232005 92 0.0 0.0 0.00 0.00 0.00 38 1015.5
20260905231508 92 0.0 0.0 0.00 0.00 0.00 38 1015.5
20260905231010 92 0.0 0.0 0.00 0.00 0.00 37 1015.1
20260905230513 92 0.0 0.0 0.00 0.00 0.00 37 1015.5
20260905230006 92 0.0 0.0 0.00 0.00 0.00 37 1015.5
20260905225507 92 0.0 0.0 0.00 0.00 0.00 37 1015.1
20260905225009 93 0.0 0.0 0.00 0.00 0.00 36 1015.1
20260905224512 93 0.0 0.0 0.00 0.00 0.00 37 1015.1
20260905224004 94 0.0 0.0 0.00 0.00 0.00 36 1015.1
20260905223507 93 0.0 0.0 0.00 0.00 0.00 35 1015.1
20260905223009 93 0.0 0.0 0.00 0.00 0.00 35 1015.1
20260905222511 93 0.0 0.0 0.00 0.00 0.00 37 1015.1
20260905222013 93 0.0 0.0 0.00 0.00 0.00 37 1015.1
20260905221506 93 0.0 0.0 0.00 0.00 0.00 37 1015.1
20260905221008 93 0.0 0.0 0.00 0.00 0.00 37 1015.1
20260905220511 92 0.0 0.0 0.00 0.00 0.00 37 1015.1
20260905220013 93 0.0 0.0 0.00 0.00 0.00 37 1015.1
20260905215505 93 0.0 0.0 0.00 0.00 0.00 38 1015.5
20260905215007 93 0.0 0.0 0.00 0.00 0.00 38 1015.5
20260905214510 93 0.0 0.0 0.00 0.00 0.00 38 1015.5
20260905214012 93 0.0 0.0 0.00 0.00 0.00 38 1015.5
20260905213506 93 0.0 0.0 0.00 0.00 0.00 38 1015.5
20260905213006 93 0.0 0.0 0.00 0.00 0.00 37 1015.5
20260905212510 94 0.0 0.0 0.00 0.00 0.00 38 1015.9
20260905212011 94 0.0 0.0 0.00 0.00 0.00 38 1015.9
20260905211513 94 0.0 0.0 0.00 0.00 0.00 38 1015.9
20260905211006 94 0.0 0.0 0.00 0.00 0.00 37 1015.9
20260905210508 94 0.0 0.0 0.00 0.00 0.00 37 1015.9
20260905210011 94 0.0 0.0 0.00 0.00 0.00 37 1015.9
20260905205512 93 0.0 0.0 0.00 0.00 0.00 37 1015.9
20260905205005 94 0.0 0.0 0.00 0.00 0.00 37 1016.3